TimeMST,TemperatureF,Dew PointF,Humidity,Sea Level PressureIn,VisibilityMPH,Wind Direction,Wind SpeedMPH,Gust SpeedMPH,PrecipitationIn,Events,Conditions,WindDirDegrees,DateUTC
12:15 AM,21.2,17.6,86,30.10,10.0,Calm,Calm,-,N/A,,Mostly Cloudy,0,2013-11-05 07:15:00
12:35 AM,21.2,17.6,86,30.10,10.0,Calm,Calm,-,N/A,,Overcast,0,2013-11-05 07:35:00
12:55 AM,21.2,17.6,86,30.11,10.0,Calm,Calm,-,N/A,,Overcast,0,2013-11-05 07:55:00
1:15 AM,21.2,17.6,86,30.11,10.0,Calm,Calm,-,N/A,,Overcast,0,2013-11-05 08:15:00
1:35 AM,21.2,19.4,93,30.11,10.0,Calm,Calm,-,N/A,,Overcast,0,2013-11-05 08:35:00
1:55 AM,23.0,19.4,86,30.11,5.0,Calm,Calm,-,N/A,Snow,Light Snow,0,2013-11-05 08:55:00
2:15 AM,23.0,21.2,93,30.11,2.0,Calm,Calm,-,N/A,Snow,Light Snow,0,2013-11-05 09:15:00
2:35 AM,23.0,21.2,93,30.11,7.0,Calm,Calm,-,N/A,Snow,Light Snow,0,2013-11-05 09:35:00
2:55 AM,23.0,21.2,93,30.11,10.0,Calm,Calm,-,N/A,,Overcast,0,2013-11-05 09:55:00
3:15 AM,23.0,21.2,93,30.10,7.0,Calm,Calm,-,N/A,Snow,Light Snow,0,2013-11-05 10:15:00
3:35 AM,23.0,21.2,93,30.10,5.0,Calm,Calm,-,N/A,Snow,Light Snow,0,2013-11-05 10:35:00
3:55 AM,23.0,21.2,93,30.12,7.0,Calm,Calm,-,N/A,Snow,Light Snow,0,2013-11-05 10:55:00
4:15 AM,23.0,21.2,93,30.12,3.0,Calm,Calm,-,N/A,Snow,Light Snow,0,2013-11-05 11:15:00
4:35 AM,23.0,21.2,93,30.13,3.0,East,3.5,-,N/A,Snow,Light Snow,90,2013-11-05 11:35:00
4:55 AM,23.0,21.2,93,30.13,2.0,Calm,Calm,-,N/A,Snow,Light Snow,0,2013-11-05 11:55:00
5:15 AM,23.0,21.2,93,30.14,1.5,Calm,Calm,-,N/A,Snow,Light Snow,0,2013-11-05 12:15:00
5:35 AM,23.0,21.2,93,30.14,2.0,Calm,Calm,-,N/A,Snow,Light Snow,0,2013-11-05 12:35:00
5:55 AM,23.0,21.2,93,30.14,2.5,Calm,Calm,-,N/A,Snow,Light Snow,0,2013-11-05 12:55:00
6:15 AM,23.0,21.2,93,30.15,2.0,Calm,Calm,-,N/A,Snow,Light Snow,0,2013-11-05 13:15:00
6:35 AM,23.0,21.2,93,30.16,2.5,Calm,Calm,-,N/A,Snow,Light Snow,0,2013-11-05 13:35:00
6:55 AM,23.0,21.2,93,30.16,3.0,Calm,Calm,-,N/A,Snow,Light Snow,0,2013-11-05 13:55:00
7:15 AM,21.2,19.4,93,30.17,4.0,Calm,Calm,-,N/A,Snow,Light Snow,0,2013-11-05 14:15:00
7:35 AM,19.4,17.6,93,30.18,4.0,SE,3.5,-,N/A,Snow,Light Snow,130,2013-11-05 14:35:00
7:55 AM,21.2,19.4,93,30.19,7.0,Calm,Calm,-,N/A,Snow,Light Snow,0,2013-11-05 14:55:00
8:15 AM,23.0,19.4,86,30.20,10.0,Calm,Calm,-,N/A,,Mostly Cloudy,0,2013-11-05 15:15:00
8:35 AM,23.0,19.4,86,30.22,7.0,Calm,Calm,-,N/A,,Scattered Clouds,0,2013-11-05 15:35:00
8:55 AM,26.6,21.2,80,30.22,10.0,Calm,Calm,-,N/A,,Clear,0,2013-11-05 15:55:00
9:15 AM,28.4,21.2,74,30.22,10.0,Calm,Calm,-,N/A,,Clear,0,2013-11-05 16:15:00
9:35 AM,28.4,21.2,74,30.23,10.0,Calm,Calm,-,N/A,,Mostly Cloudy,0,2013-11-05 16:35:00
9:55 AM,30.2,21.2,69,30.24,10.0,Calm,Calm,-,N/A,,Mostly Cloudy,0,2013-11-05 16:55:00
10:15 AM,32.0,21.2,64,30.24,10.0,Calm,Calm,-,N/A,,Scattered Clouds,0,2013-11-05 17:15:00
10:35 AM,32.0,21.2,64,30.25,10.0,Calm,Calm,-,N/A,,Mostly Cloudy,0,2013-11-05 17:35:00
10:55 AM,32.0,21.2,64,30.25,10.0,Calm,Calm,-,N/A,,Overcast,0,2013-11-05 17:55:00
11:15 AM,32.0,19.4,60,30.26,10.0,Calm,Calm,-,N/A,,Scattered Clouds,0,2013-11-05 18:15:00
11:35 AM,32.0,19.4,60,30.25,10.0,SW,3.5,-,N/A,,Scattered Clouds,230,2013-11-05 18:35:00
11:55 AM,32.0,19.4,60,30.25,10.0,Calm,Calm,-,N/A,,Clear,0,2013-11-05 18:55:00
12:15 PM,33.8,21.2,60,30.24,10.0,WSW,5.8,-,N/A,,Clear,240,2013-11-05 19:15:00
12:35 PM,33.8,21.2,60,30.23,10.0,WSW,4.6,-,N/A,,Clear,250,2013-11-05 19:35:00
12:55 PM,33.8,19.4,56,30.23,10.0,Calm,Calm,-,N/A,,Clear,0,2013-11-05 19:55:00
1:15 PM,35.6,19.4,52,30.23,10.0,Calm,Calm,-,N/A,,Scattered Clouds,0,2013-11-05 20:15:00
1:35 PM,35.6,19.4,52,30.22,10.0,Calm,Calm,-,N/A,,Scattered Clouds,0,2013-11-05 20:35:00
1:55 PM,35.6,19.4,52,30.23,10.0,East,3.5,-,N/A,,Clear,100,2013-11-05 20:55:00
2:15 PM,33.8,17.6,52,30.23,10.0,Calm,Calm,-,N/A,,Scattered Clouds,0,2013-11-05 21:15:00
2:35 PM,35.6,19.4,52,30.23,10.0,East,3.5,-,N/A,,Scattered Clouds,100,2013-11-05 21:35:00
2:55 PM,35.6,19.4,52,30.23,10.0,SSW,3.5,-,N/A,,Scattered Clouds,210,2013-11-05 21:55:00
3:15 PM,37.4,17.6,45,30.23,10.0,SW,4.6,-,N/A,,Scattered Clouds,220,2013-11-05 22:15:00
3:35 PM,35.6,17.6,48,30.23,10.0,West,5.8,-,N/A,,Clear,260,2013-11-05 22:35:00
3:55 PM,35.6,17.6,48,30.24,10.0,SW,5.8,-,N/A,,Clear,230,2013-11-05 22:55:00
4:15 PM,35.6,19.4,52,30.25,10.0,SW,10.4,-,N/A,,Clear,230,2013-11-05 23:15:00
4:35 PM,35.6,17.6,48,30.25,10.0,SSW,6.9,-,N/A,,Clear,210,2013-11-05 23:35:00
4:55 PM,33.8,19.4,56,30.26,10.0,SW,5.8,-,N/A,,Clear,220,2013-11-05 23:55:00
5:15 PM,32.0,17.6,55,30.26,10.0,SSW,4.6,-,N/A,,Clear,210,2013-11-06 00:15:00
5:35 PM,30.2,19.4,64,30.26,10.0,SW,5.8,-,N/A,,Clear,220,2013-11-06 00:35:00
5:55 PM,30.2,17.6,60,30.27,10.0,SW,5.8,-,N/A,,Clear,220,2013-11-06 00:55:00
6:15 PM,30.2,19.4,64,30.27,10.0,Calm,Calm,-,N/A,,Clear,0,2013-11-06 01:15:00
6:35 PM,28.4,19.4,69,30.28,10.0,Calm,Calm,-,N/A,,Clear,0,2013-11-06 01:35:00
6:55 PM,26.6,19.4,74,30.29,10.0,SE,4.6,-,N/A,,Clear,130,2013-11-06 01:55:00
7:15 PM,24.8,17.6,74,30.29,10.0,ESE,6.9,-,N/A,,Clear,110,2013-11-06 02:15:00
7:35 PM,23.0,17.6,80,30.29,10.0,ESE,4.6,-,N/A,Thunderstorm,Thunderstorm,120,2013-11-06 02:35:00
7:55 PM,23.0,17.6,80,30.30,10.0,Calm,Calm,-,N/A,,Clear,0,2013-11-06 02:55:00
8:15 PM,23.0,17.6,80,30.31,10.0,Calm,Calm,-,N/A,,Clear,0,2013-11-06 03:15:00
8:35 PM,23.0,17.6,80,30.32,10.0,Calm,Calm,-,N/A,,Clear,0,2013-11-06 03:35:00
8:55 PM,21.2,17.6,86,30.32,10.0,Calm,Calm,-,N/A,,Clear,0,2013-11-06 03:55:00
9:15 PM,21.2,17.6,86,30.33,10.0,ESE,4.6,-,N/A,,Clear,120,2013-11-06 04:15:00
9:35 PM,21.2,15.8,80,30.33,10.0,Calm,Calm,-,N/A,,Clear,0,2013-11-06 04:35:00
9:55 PM,21.2,17.6,86,30.33,10.0,South,3.5,-,N/A,,Clear,190,2013-11-06 04:55:00
10:15 PM,21.2,17.6,86,30.34,10.0,Calm,Calm,-,N/A,,Clear,0,2013-11-06 05:15:00
10:35 PM,19.4,15.8,86,30.34,10.0,Calm,Calm,-,N/A,,Clear,0,2013-11-06 05:35:00
10:55 PM,19.4,15.8,86,30.34,10.0,SE,3.5,-,N/A,,Clear,130,2013-11-06 05:55:00
11:35 PM,19.4,14.0,80,30.34,10.0,Calm,Calm,-,N/A,,Clear,0,2013-11-06 06:35:00
11:55 PM,21.2,15.8,80,30.34,10.0,Calm,Calm,-,N/A,,Clear,0,2013-11-06 06:55:00